RH
24 16 8 6 6 7 7 8 15 26 36 48 62 79 88 88 88 88 84 80 75 70 62 54 47 40 40 55 78 92 92 86 81 77 75 71 66 65 65 67 68 69
21 11 7 8 9 8 9 19 35 46 51 59 73 82 81 70 62 57 51 45 38 33 28 23 20 17 16 22 38 65 89 95 88 81 78 75 71 68 66 65 67 69
11 8 9 10 10 9 19 36 48 52 52 56 58 53 43 34 28 23 21 18 15 14 12 12 11 10 11 11 13 26 52 78 91 93 91 84 77 73 70 67 67 70
9 11 11 10 11 18 33 45 47 47 44 36 28 22 18 18 17 15 15 15 14 14 13 13 12 11 11 12 13 12 17 35 59 79 91 94 90 83 77 73 71 72
12 14 12 12 21 35 48 52 50 49 38 24 18 18 18 17 17 17 17 17 17 15 15 14 14 15 14 13 14 14 13 15 24 44 66 83 94 97 90 83 81 80
15 15 13 22 38 52 60 63 64 58 42 28 22 20 20 19 19 20 18 18 19 18 18 18 17 17 17 17 15 15 17 16 17 28 40 51 70 91 100 97 94 91
17 16 19 32 48 61 72 74 70 58 42 30 24 22 24 23 22 22 22 22 22 22 22 21 21 22 21 22 21 18 18 19 18 23 27 27 37 60 83 98 102 98
19 19 26 39 52 66 76 71 58 44 33 27 25 26 26 25 26 26 26 26 25 25 27 25 25 26 26 27 27 25 22 21 20 22 25 24 24 31 46 75 99 101
22 24 36 51 61 65 61 48 37 31 28 27 26 26 26 28 30 29 30 31 31 31 31 31 31 30 31 32 32 31 29 26 25 25 27 27 28 28 28 51 87 102
23 32 51 62 60 54 43 35 33 30 29 29 28 29 31 32 34 36 37 37 37 37 36 36 36 34 34 34 33 35 34 32 31 30 31 30 30 33 32 40 70 96
26 44 65 61 47 43 38 35 35 32 32 33 33 34 36 37 40 42 43 43 42 42 42 41 41 40 39 39 38 39 39 39 39 37 37 38 36 38 40 41 53 76
30 47 63 54 40 41 39 35 36 35 36 38 39 41 42 42 46 46 48 49 46 47 47 46 46 47 46 45 45 46 47 48 49 49 48 48 48 47 49 51 51 57
33 42 53 48 42 42 38 37 39 39 41 43 45 49 49 49 51 51 52 52 50 51 52 51 51 51 51 52 52 52 53 53 54 58 59 58 58 58 59 63 64 61
39 46 49 46 44 42 41 43 43 44 48 50 52 54 54 55 56 55 56 55 54 54 52 53 55 54 55 56 55 55 58 63 70 77 81 82 82 82 82 83 85 84
49 53 52 49 49 48 48 49 49 51 54 54 57 58 58 59 58 58 58 56 56 55 54 55 56 56 59 60 64 74 81 88 94 96 98 99 98 99 99 98 98 97
55 55 54 54 53 52 53 54 54 56 57 57 60 60 60 60 59 59 59 58 57 55 55 57 57 59 62 63 78 96 100 99 101 100 100 100 100 101 99 99 100 98
56 56 56 56 56 56 56 56 57 58 59 60 61 60 61 61 60 59 59 58 58 56 56 59 62 66 65 69 89 103 99 99 102 100 101 101 100 101 100 98 97 94
58 60 62 60 60 61 60 60 60 60 61 62 62 62 62 61 61 61 60 58 59 59 61 63 65 68 68 74 87 89 84 93 103 100 101 102 100 101 100 99 98 96
62 65 66 65 65 65 63 63 63 63 65 65 65 65 64 63 63 62 60 60 63 66 68 67 65 66 68 70 74 77 83 94 100 100 101 103 103 103 101 98 97 97
67 70 70 68 68 66 65 65 65 67 68 68 68 67 66 65 64 62 61 63 68 72 71 66 64 67 69 66 67 77 87 91 92 95 99 99 99 100 99 97 98 99
71 73 71 69 68 68 67 67 69 70 70 70 70 68 67 67 65 66 68 68 71 74 71 67 67 71 74 74 75 79 83 85 87 90 92 92 91 93 94 95 95 93
73 74 72 71 71 71 71 70 72 72 72 72 71 68 67 68 68 71 75 74 71 70 72 74 73 73 78 85 90 87 81 81 83 81 82 85 87 92 93 91 87 86
75 78 77 76 75 74 74 73 74 74 73 73 73 71 68 68 72 75 76 75 72 70 76 82 77 72 77 90 99 97 91 89 87 83 83 85 88 91 91 89 90 92
78 82 81 79 76 76 76 76 75 74 73 73 74 76 73 71 76 79 74 71 71 73 80 85 81 73 76 90 100 100 100 101 99 95 94 92 91 91 90 94 98 97
79 83 83 80 78 77 77 78 76 74 74 73 73 77 78 75 78 81 76 69 70 75 79 83 83 78 79 92 100 99 101 103 100 100 100 98 95 93 92 93 96 96
77 82 83 81 80 78 77 77 77 76 74 72 71 75 79 78 78 81 79 73 72 76 77 78 82 84 86 95 100 100 100 100 100 102 102 100 96 91 90 88 89 93
Wind_Speed
23 25 28 29 29 29 29 28 27 25 24 23 22 23 25 27 29 31 34 35 36 38 39 39 40 39 38 36 34 35 37 37 36 35 37 43 47 47 47 47 46 45
27 29 31 31 30 30 28 25 24 23 23 24 24 26 29 32 34 36 38 40 41 42 42 42 42 41 40 38 37 37 38 37 36 34 35 41 45 48 49 49 48 46
32 33 32 32 31 29 27 24 23 25 26 27 29 32 35 38 39 40 41 42 43 44 43 43 43 42 40 39 38 38 39 39 38 35 35 38 41 45 47 48 48 46
34 33 32 32 30 27 25 25 26 27 29 32 35 38 39 40 41 42 43 43 44 45 45 45 44 43 42 41 39 39 40 41 41 38 36 37 38 40 43 45 47 46
33 32 31 30 27 25 25 26 28 29 33 38 40 40 41 41 42 43 44 44 45 46 46 45 45 44 44 43 41 41 41 41 42 39 38 39 38 37 39 42 45 46
32 32 31 28 25 24 26 27 29 32 38 42 43 42 42 43 44 44 45 45 46 46 46 46 46 45 45 44 43 43 42 42 42 41 40 42 42 40 39 40 43 45
34 33 31 27 25 25 27 29 31 36 41 43 44 44 44 44 45 45 46 46 47 47 47 47 47 46 46 45 45 45 44 44 44 43 44 46 46 45 43 42 43 45
35 33 30 27 26 27 29 32 36 39 42 43 44 44 44 45 45 46 46 47 48 48 48 48 47 47 46 46 46 47 47 46 46 45 46 47 47 47 47 45 44 45
35 33 29 27 28 30 33 36 39 41 42 43 44 45 45 45 46 47 47 48 48 48 48 48 48 47 47 46 47 47 48 48 48 47 47 48 49 49 49 46 45 45
35 32 28 28 30 33 37 39 40 42 43 43 44 45 46 46 46 47 48 49 49 49 49 49 49 49 48 48 47 47 48 49 49 49 48 48 49 49 50 48 46 47
35 31 29 31 35 37 39 41 41 43 43 44 45 46 47 47 48 48 49 49 50 50 50 50 49 49 49 49 49 48 48 49 49 50 50 50 50 49 49 49 48 49
36 31 31 35 38 40 41 42 43 44 44 45 46 47 48 48 48 49 49 49 50 50 50 50 50 49 49 49 49 48 48 48 49 49 50 50 50 50 49 48 48 49
37 34 34 38 40 41 42 43 44 45 46 46 47 48 49 49 50 50 49 49 49 49 49 49 49 49 49 48 48 48 48 48 47 47 48 48 48 48 46 45 44 45
37 36 38 40 41 42 43 44 45 46 46 47 48 48 49 49 50 50 49 49 48 48 48 47 47 48 48 48 48 47 47 46 45 45 45 44 44 44 43 42 40 39
37 38 39 40 41 43 44 45 46 46 47 48 48 49 49 49 49 49 49 49 48 47 46 46 46 46 46 46 46 45 45 44 43 43 43 42 42 42 42 42 42 41
38 39 40 41 42 44 45 46 47 47 48 49 49 49 49 49 49 48 48 48 48 48 47 46 46 45 45 44 42 41 42 43 43 43 42 42 43 43 44 44 44 45
39 40 41 42 43 45 46 47 47 48 49 49 50 50 49 49 49 48 48 47 47 47 47 46 45 44 43 42 41 41 42 42 44 44 44 44 44 46 48 47 45 44
40 41 42 43 44 45 46 47 48 48 49 49 50 49 49 49 48 48 48 47 46 46 46 46 45 43 42 41 42 41 39 39 42 44 45 45 45 46 47 47 46 44
41 42 43 44 45 46 47 47 48 48 48 49 49 49 49 49 48 47 47 46 45 45 45 45 44 43 41 41 41 39 37 37 39 42 44 44 44 44 44 44 43 43
41 43 44 45 46 46 48 48 48 48 48 48 49 48 48 48 47 46 46 45 44 43 44 45 44 43 41 40 39 38 36 36 37 40 42 42 41 41 41 41 40 39
42 44 45 46 46 47 47 48 48 49 49 48 48 48 48 47 46 45 45 44 43 42 44 45 43 41 39 38 37 36 35 36 38 40 41 41 39 39 38 39 39 39
43 44 45 46 47 47 48 48 49 49 48 48 48 48 47 46 45 44 43 43 43 42 43 45 43 40 38 37 35 34 34 35 38 39 40 41 39 38 37 38 38 37
42 44 46 47 47 48 48 49 49 49 48 47 47 47 47 45 44 43 42 42 42 41 43 45 44 41 40 38 37 35 34 35 37 39 40 40 39 37 36 36 34 33
43 44 45 46 47 47 48 49 49 48 48 46 45 46 46 44 43 42 41 40 40 41 42 46 46 44 43 43 41 36 33 34 36 38 39 38 37 35 33 33 31 29
43 43 44 45 46 47 47 48 48 48 47 46 44 44 44 43 41 42 42 39 39 41 43 46 47 46 45 46 43 37 35 33 34 36 37 36 34 33 31 30 28 25
42 43 43 44 45 46 47 47 47 47 46 45 44 43 42 41 40 40 41 40 40 43 44 45 47 49 48 47 43 39 35 33 32 34 34 33 31 29 28 27 25 22
Wind_Direction
323 324 324 325 324 322 320 319 318 316 313 311 308 306 303 300 298 297 296 295 295 294 294 295 295 294 293 289 287 286 282 280 277 277 280 277 275 275 277 279 279 278
327 327 328 328 326 324 322 321 318 311 307 304 303 303 302 301 300 300 300 299 299 299 299 299 298 297 296 292 288 284 281 281 278 277 279 277 274 273 274 276 277 276
329 329 329 328 326 325 323 319 311 306 305 305 307 308 307 306 306 305 304 304 304 303 303 302 301 301 299 296 292 285 281 280 280 280 279 276 273 273 273 274 274 273
330 329 328 327 326 324 319 312 307 307 309 311 312 312 311 311 310 308 308 308 307 306 306 305 304 303 302 299 296 291 285 281 279 280 280 277 275 274 273 272 270 270
330 330 329 328 325 320 313 308 308 310 312 314 315 315 314 314 312 311 311 310 309 308 307 306 306 305 303 301 298 294 290 285 281 280 278 276 275 274 274 271 268 268
333 332 332 329 323 316 310 308 309 310 312 315 316 316 316 315 313 313 312 311 310 309 308 308 307 306 304 302 300 296 293 289 284 281 277 274 271 270 270 270 268 267
335 335 334 328 321 315 311 309 309 310 313 315 316 317 316 315 314 314 313 312 311 310 310 309 308 307 306 304 301 297 294 290 287 283 280 276 273 269 266 266 267 266
335 335 333 327 321 316 312 311 311 313 315 316 316 316 316 316 315 314 314 313 312 311 311 310 309 307 306 304 301 298 296 293 289 286 283 279 276 272 267 264 264 265
335 335 331 324 320 316 314 314 315 316 317 317 316 316 316 316 316 315 314 313 313 312 311 310 309 308 306 303 301 298 296 293 291 288 285 282 279 275 270 265 263 263
336 335 329 322 319 317 318 319 319 319 319 318 317 317 317 317 317 316 316 315 314 313 312 311 310 308 307 304 302 300 297 295 292 289 287 284 280 276 273 267 261 260
337 335 326 320 321 322 322 322 321 321 320 320 320 319 318 318 318 318 317 316 315 315 314 312 311 310 308 306 305 303 301 298 295 293 290 287 284 280 276 270 263 258
337 333 325 323 325 325 323 323 323 323 322 322 322 321 319 319 319 319 318 317 316 315 314 313 312 311 309 307 306 304 302 300 297 294 291 288 285 283 279 274 268 260
334 332 327 326 326 325 324 324 324 324 324 323 322 321 320 320 320 319 319 317 316 315 314 313 312 310 308 307 305 303 301 299 296 294 292 289 286 284 282 278 273 266
333 331 328 327 326 326 326 325 325 325 324 323 322 321 321 321 321 320 318 317 316 314 314 313 311 309 307 306 304 303 302 301 299 298 295 292 289 287 285 282 278 273
332 329 328 328 327 327 327 326 326 325 324 323 322 322 322 321 321 319 318 317 315 314 314 312 310 307 306 306 305 304 302 299 297 294 290 285 283 282 281 281 279 277
331 329 329 328 328 328 328 327 327 326 324 324 323 323 323 322 321 319 318 317 316 315 313 311 309 307 306 307 304 299 295 292 289 286 283 280 279 279 278 278 277 274
330 330 329 329 329 328 328 328 327 326 325 324 324 324 323 322 321 319 318 317 317 315 312 310 309 309 309 307 302 295 291 289 285 283 281 280 279 280 280 281 279 275
331 330 329 329 329 329 328 328 327 326 325 324 324 324 323 322 321 320 319 318 317 314 312 311 311 310 310 306 301 298 295 290 287 285 284 282 281 280 279 279 279 277
332 331 329 329 330 329 329 328 327 326 326 326 326 325 324 323 322 321 320 318 317 315 313 313 312 311 311 307 303 302 299 292 288 287 286 286 285 284 281 279 277 277
332 331 330 330 330 329 328 328 327 327 327 328 327 326 325 324 323 322 320 318 317 317 316 314 313 314 314 310 306 302 297 291 287 286 287 286 285 284 281 279 277 276
333 331 330 329 329 329 328 328 329 328 329 329 328 326 325 324 323 322 320 319 319 320 318 316 317 319 317 312 307 302 296 292 289 288 288 287 285 284 282 279 277 277
333 331 330 330 330 330 330 330 330 330 330 330 328 327 326 325 324 323 322 321 321 322 321 319 320 323 321 316 311 304 298 294 291 289 289 288 287 288 286 283 280 276
333 332 331 331 331 332 332 331 331 330 331 331 330 328 326 325 325 324 324 324 324 324 323 322 323 327 325 320 316 310 303 298 293 290 290 288 287 287 286 284 280 275
334 333 332 331 332 333 332 332 331 331 331 332 331 329 327 326 327 326 326 326 326 326 327 325 325 328 327 323 320 315 307 300 296 294 292 290 288 288 287 285 283 276
334 333 332 332 333 333 333 332 331 331 332 332 331 330 329 328 329 329 328 329 330 330 330 329 327 327 328 325 322 317 310 302 297 295 292 289 288 288 287 286 284 275
335 334 333 334 334 333 333 332 332 332 333 333 332 332 331 330 331 331 331 332 334 334 333 332 329 328 328 327 323 318 312 304 298 293 288 285 285 285 284 283 280 270